When you browse on this site, cookies collect data to enhance your experience and personalize the content and advertising you see.
Visit our Privacy Policy to learn more. By continuing to use the site, you agree to this use of cookies and data.
  • în România
  • Lista ţărilor
  • Pe 7 zile
  • Temperatura apei
  • Meteo pe hartă
  • Widget-uri
  • user-avatar
    Intrare

    Meteo pe oră la Brindisi

    Astăzi, 29 Mai, Vineri

    Timp Temperatura Precipitaţii Vânt Presiune Umiditate
    00:00 +16°C° 0 mm 5 m/s 762 mmHg 59%
    01:00 +15°C° 0 mm 4 m/s 761 mmHg 55%
    02:00 +15°C° 0 mm 5 m/s 761 mmHg 53%
    03:00 +15°C° 0 mm 5 m/s 761 mmHg 51%
    04:00 +15°C° 0 mm 5 m/s 761 mmHg 50%
    05:00 +16°C° 0 mm 6 m/s 761 mmHg 50%
    06:00 +19°C° 0 mm 6 m/s 761 mmHg 49%
    07:00 +20°C° 0 mm 6 m/s 761 mmHg 50%
    08:00 +21°C° 0.1 mm 6 m/s 761 mmHg 50%
    09:00 +22°C° 0.1 mm 7 m/s 761 mmHg 49%
    10:00 +22°C° 0.1 mm 7 m/s 761 mmHg 49%
    11:00 +23°C° 0 mm 6 m/s 761 mmHg 47%
    12:00 +23°C° 0 mm 6 m/s 761 mmHg 46%
    13:00 +25°C° 0 mm 5 m/s 760 mmHg 45%
    14:00 +23°C° 0 mm 5 m/s 760 mmHg 46%
    15:00 +23°C° 0 mm 4 m/s 760 mmHg 48%
    16:00 +22°C° 0 mm 4 m/s 760 mmHg 49%
    17:00 +21°C° 0 mm 3 m/s 760 mmHg 56%
    18:00 +20°C° 0 mm 3 m/s 760 mmHg 62%
    19:00 +19°C° 0 mm 3 m/s 760 mmHg 68%
    20:00 +19°C° 0 mm 2 m/s 760 mmHg 70%
    21:00 +18°C° 0 mm 2 m/s 760 mmHg 72%
    22:00 +17°C° 0 mm 2 m/s 760 mmHg 75%
    23:00 +17°C° 0 mm 2 m/s 760 mmHg 75%

    Mâine, 30 Mai, Sâmbătă

    Timp Temperatura Precipitaţii Vânt Presiune Umiditate
    00:00 +17°C° 0 mm 2 m/s 760 mmHg 75%
    01:00 +17°C° 0 mm 2 m/s 760 mmHg 75%
    02:00 +17°C° 0 mm 2 m/s 760 mmHg 76%
    03:00 +16°C° 0 mm 2 m/s 760 mmHg 77%
    04:00 +16°C° 0 mm 2 m/s 760 mmHg 78%
    05:00 +17°C° 0 mm 2 m/s 760 mmHg 73%
    06:00 +18°C° 0 mm 2 m/s 760 mmHg 69%
    07:00 +19°C° 0 mm 2 m/s 760 mmHg 64%
    08:00 +20°C° 0.1 mm 2 m/s 760 mmHg 60%
    09:00 +21°C° 0.1 mm 2 m/s 760 mmHg 55%
    10:00 +23°C° 0.1 mm 2 m/s 760 mmHg 51%
    11:00 +23°C° 0.3 mm 2 m/s 760 mmHg 51%
    12:00 +22°C° 0.3 mm 3 m/s 760 mmHg 51%
    13:00 +22°C° 0.3 mm 3 m/s 759 mmHg 52%
    14:00 +22°C° 0.5 mm 3 m/s 759 mmHg 52%
    15:00 +22°C° 0.5 mm 3 m/s 759 mmHg 52%
    16:00 +22°C° 0.5 mm 3 m/s 759 mmHg 53%
    17:00 +21°C° 0.2 mm 3 m/s 759 mmHg 60%
    18:00 +19°C° 0.2 mm 3 m/s 759 mmHg 66%
    19:00 +18°C° 0.2 mm 3 m/s 759 mmHg 73%
    20:00 +18°C° 0.1 mm 3 m/s 759 mmHg 74%
    21:00 +18°C° 0.1 mm 4 m/s 759 mmHg 75%
    22:00 +18°C° 0.1 mm 4 m/s 759 mmHg 75%
    23:00 +18°C° 0.2 mm 3 m/s 759 mmHg 76%

    Poimâine, 31 Mai, Duminică

    Timp Temperatura Precipitaţii Vânt Presiune Umiditate
    00:00 +18°C° 0.2 mm 3 m/s 759 mmHg 76%
    01:00 +18°C° 0.2 mm 3 m/s 758 mmHg 76%
    02:00 +17°C° 0.2 mm 3 m/s 758 mmHg 77%
    03:00 +17°C° 0.2 mm 2 m/s 758 mmHg 78%
    04:00 +17°C° 0.2 mm 2 m/s 758 mmHg 79%
    05:00 +18°C° 0.2 mm 2 m/s 758 mmHg 75%
    06:00 +19°C° 0.2 mm 2 m/s 758 mmHg 71%
    07:00 +20°C° 0.2 mm 2 m/s 759 mmHg 66%
    08:00 +21°C° 0.2 mm 2 m/s 759 mmHg 62%
    09:00 +22°C° 0.2 mm 3 m/s 759 mmHg 57%
    10:00 +24°C° 0.2 mm 3 m/s 759 mmHg 52%
    11:00 +24°C° 0.1 mm 3 m/s 759 mmHg 51%
    12:00 +24°C° 0.1 mm 3 m/s 759 mmHg 51%
    13:00 +24°C° 0.1 mm 3 m/s 759 mmHg 50%
    14:00 +24°C° 0 mm 3 m/s 758 mmHg 51%
    15:00 +22°C° 0 mm 3 m/s 758 mmHg 52%
    16:00 +22°C° 0 mm 4 m/s 758 mmHg 53%
    17:00 +21°C° 0 mm 4 m/s 758 mmHg 58%
    18:00 +20°C° 0 mm 3 m/s 758 mmHg 63%
    19:00 +19°C° 0 mm 3 m/s 758 mmHg 68%
    20:00 +19°C° 0 mm 3 m/s 758 mmHg 71%
    21:00 +18°C° 0 mm 3 m/s 758 mmHg 73%
    22:00 +18°C° 0 mm 3 m/s 759 mmHg 76%
    23:00 +17°C° 0 mm 3 m/s 758 mmHg 76%

    1 Iunie, Luni

    Timp Temperatura Precipitaţii Vânt Presiune Umiditate
    00:00 +17°C° 0 mm 3 m/s 758 mmHg 76%
    01:00 +17°C° 0 mm 3 m/s 758 mmHg 77%
    02:00 +17°C° 0 mm 3 m/s 758 mmHg 77%
    03:00 +17°C° 0 mm 3 m/s 758 mmHg 77%
    04:00 +17°C° 0 mm 3 m/s 758 mmHg 77%
    05:00 +18°C° 0 mm 4 m/s 758 mmHg 73%
    06:00 +19°C° 0 mm 4 m/s 758 mmHg 69%
    07:00 +20°C° 0 mm 5 m/s 758 mmHg 64%
    08:00 +20°C° 0.1 mm 6 m/s 758 mmHg 59%
    09:00 +21°C° 0.1 mm 7 m/s 758 mmHg 53%
    10:00 +22°C° 0.1 mm 8 m/s 758 mmHg 48%
    11:00 +22°C° 0 mm 8 m/s 758 mmHg 48%
    12:00 +23°C° 0 mm 9 m/s 757 mmHg 49%
    13:00 +23°C° 0 mm 9 m/s 757 mmHg 50%
    14:00 +22°C° 0 mm 9 m/s 757 mmHg 52%
    15:00 +22°C° 0 mm 9 m/s 757 mmHg 54%
    16:00 +22°C° 0 mm 9 m/s 756 mmHg 55%
    17:00 +21°C° 0 mm 8 m/s 756 mmHg 59%
    18:00 +20°C° 0 mm 7 m/s 756 mmHg 63%
    19:00 +18°C° 0 mm 7 m/s 756 mmHg 67%
    20:00 +18°C° 0.1 mm 7 m/s 756 mmHg 66%
    21:00 +18°C° 0.1 mm 7 m/s 756 mmHg 66%
    22:00 +18°C° 0.1 mm 7 m/s 757 mmHg 66%
    23:00 +18°C° 0 mm 7 m/s 756 mmHg 68%

    2 Iunie, Marţi

    Timp Temperatura Precipitaţii Vânt Presiune Umiditate
    00:00 +19°C° 0 mm 6 m/s 756 mmHg 69%
    01:00 +19°C° 0 mm 6 m/s 756 mmHg 71%
    02:00 +17°C° 0 mm 6 m/s 756 mmHg 73%
    03:00 +17°C° 0 mm 6 m/s 756 mmHg 74%
    04:00 +17°C° 0 mm 6 m/s 756 mmHg 76%
    05:00 +17°C° 0 mm 6 m/s 756 mmHg 70%
    06:00 +18°C° 0 mm 7 m/s 756 mmHg 64%
    07:00 +20°C° 0 mm 7 m/s 756 mmHg 58%
    08:00 +21°C° 0 mm 8 m/s 756 mmHg 54%
    09:00 +21°C° 0 mm 9 m/s 756 mmHg 51%
    10:00 +22°C° 0 mm 10 m/s 756 mmHg 48%
    11:00 +22°C° 0 mm 10 m/s 756 mmHg 47%
    12:00 +22°C° 0 mm 9 m/s 756 mmHg 47%
    13:00 +22°C° 0 mm 9 m/s 756 mmHg 47%
    14:00 +22°C° 0 mm 9 m/s 756 mmHg 47%
    15:00 +22°C° 0 mm 9 m/s 755 mmHg 47%
    16:00 +22°C° 0 mm 9 m/s 755 mmHg 47%
    17:00 +21°C° 0 mm 8 m/s 755 mmHg 51%
    18:00 +20°C° 0 mm 8 m/s 755 mmHg 55%
    19:00 +18°C° 0 mm 8 m/s 755 mmHg 59%
    20:00 +18°C° 0 mm 8 m/s 755 mmHg 62%
    21:00 +18°C° 0 mm 8 m/s 756 mmHg 65%
    22:00 +18°C° 0 mm 8 m/s 756 mmHg 68%
    23:00 +18°C° 0 mm 8 m/s 756 mmHg 69%

    3 Iunie, Miercuri

    Timp Temperatura Precipitaţii Vânt Presiune Umiditate
    00:00 +17°C° 0 mm 8 m/s 756 mmHg 69%
    01:00 +17°C° 0 mm 7 m/s 755 mmHg 70%
    02:00 +17°C° 0 mm 7 m/s 755 mmHg 71%
    03:00 +17°C° 0 mm 7 m/s 755 mmHg 71%
    04:00 +16°C° 0 mm 7 m/s 755 mmHg 71%
    05:00 +17°C° 0 mm 7 m/s 755 mmHg 68%
    06:00 +19°C° 0 mm 6 m/s 756 mmHg 66%
    07:00 +20°C° 0 mm 6 m/s 756 mmHg 63%
    08:00 +21°C° 0 mm 5 m/s 756 mmHg 58%
    09:00 +22°C° 0 mm 5 m/s 756 mmHg 53%
    10:00 +23°C° 0 mm 4 m/s 757 mmHg 47%
    11:00 +23°C° 0 mm 4 m/s 757 mmHg 46%
    12:00 +24°C° 0 mm 3 m/s 757 mmHg 44%
    13:00 +25°C° 0 mm 3 m/s 757 mmHg 42%
    14:00 +24°C° 0 mm 3 m/s 757 mmHg 42%
    15:00 +24°C° 0 mm 3 m/s 757 mmHg 42%
    16:00 +24°C° 0 mm 3 m/s 757 mmHg 42%
    17:00 +22°C° 0 mm 3 m/s 757 mmHg 46%
    18:00 +21°C° 0 mm 3 m/s 757 mmHg 50%
    19:00 +21°C° 0 mm 3 m/s 757 mmHg 55%
    20:00 +20°C° 0 mm 3 m/s 757 mmHg 59%
    21:00 +20°C° 0 mm 4 m/s 757 mmHg 63%
    22:00 +19°C° 0 mm 4 m/s 757 mmHg 67%
    23:00 +19°C° 0 mm 4 m/s 757 mmHg 71%
    Arată mai mult